Back to catalog

CZ-6A DEB

AlivePO
NORAD 54988·DEBRIS·🇨🇳 China

Launched Nov 11, 2022 from Taiyuan Satellite Launch Center

Loading…

Next Passes (next 24 hours)

TLE

FreshSource: Space-Track

Epoch: Sep 14, 2026, 08:11 UTC

1 54988U 22151UD  26257.34162393  .00005686  00000-0  12186-2 0  9993
2 54988  99.1313  29.9723 0069091 112.8868 247.9641 14.57642732201189

Track CZ-6A DEB in real time with AllMySat

Download on the App Store